STARLINK-34339, 64160

Orbit data source: Space-Track

STARLINK-34339, 64160 is a payload satellite owned by SpaceX/Seattle (US) in SSO that was launched on Tue, 27 May 2025 UTC via an FALCON 9 launch vehicle from the Air Force Western Test Range (AFWTR). Payload-class satellites include a variety of spacecraft equipped with specific instruments for various scientific and technological missions. These include communications satellites like Starlink; space stations such as the ISS; scientific satellites like the Hubble; Earth observation satellites from companies like Planet Labs, Umbra, and HawkEye 360; GPS; miniature CubeSats for education and research; and military/defense satellites.

Loading next visibility...
Identifier
64160, 2025-112Q
Orbit
SSO
Country
Flag of USUS
Related business
Manufacturer
SpaceX/Seattle
Mission
Operational Commercial Communications
Bus & Motor
STARLINK V2MO, Unknown motor
Mass
575 kg wet, ~530 kg dry
Launch date (UTC)
2025-05-27 (1 year ago)
Launch vehicle
FALCON 9
Launch site
Air Force Western Test Range (AFWTR)
Object type
Payload
Rocket body
Debris
Shape & HBR
Box + 2 Pan, 17.7 m
Radar Cross Section
36.964 m², Large (>1 m²)

Expand to show TLE details & history
Last TLE update: 17 hours ago

TLE from 17 hours ago
0 STARLINK-34339
1 64160U 25112Q   26197.65901714  .00000376  00000-0  29980-4 0  9994
2 64160  97.2838 246.5049 0002118 110.0886 250.0570 15.05650771 62714
Epoch: 2026-07-16T15:48Z
TLE epoch observation values (Epoch: 2026-07-16T15:48:59.080Z)
Latitude
-0.00002°
Longitude
74.76143°
Altitude
553.084 km
Speed
7.585 km/s
True Right ascension
16h 26m 01s
True Declination
0° 00' 00"
Sunlit
Object was in full shadow at epoch
Visualization orbit readout
Latitude
Unknown
Longitude
Unknown
Altitude
Unknown
Speed
Unknown
Apparent Right ascension
Unknown
Apparent Declination
Unknown
Sunlit
N/A
Visualization observer readout
Local Sidereal Time
21:25:36
Azimuth
Unknown
Elevation
Unknown
Doppler factor
Unknown
Orbital elements
Apogee altitude
547.955 km
Perigee altitude
545.022 km
Semi-major axis
6,924.626 km
Eccentricity
0.00021
Inclination
97.2838°
RAAN
246.5049°
Arg. of periapsis
110.0886°
True anomaly
250.03419°
Mean anomaly
250.057°
Eccentric anomaly
250.04559°
Mean motion
3.76659 °/min
Orbital period
95.58 mins
BSTAR
0.00002998
Loading maneuver chart data...
Computing Atmospheric mass density...
Loading historical data...
Loading historical data...
Loading historical data...
Loading historical data...
Loading historical data...
Loading historical data...
Loading historical data...

Documentation

Showing up to 5 results
|